Location: Apeadero de Los Molinos-Guadarrama
(40.7091°N, 4.0689°W)
Time: 22:27:54
(UTC+00:00)

Tiangong - Pass Details

Date: 29 September 2021
Orbit: 382 x 385 km, 41.5° (Epoch: 19 October)

Event Time Altitude Azimuth Distance (km) Brightness Sun altitude
Exits shadow 04:13:39 33° 114° (ESE) 663 2.6 -22.7°
Drops below altitude 10° 04:15:46 10° 85° (E) 1,395 5.0 -22.4°
Sets 04:17:54 0° 79° (E) 2,249 6.5 -22.0°
